ANZ109 NZAA-YSSY

Flight info

Callsign ANZ109
Flight time N/A
Altitude 34000
Route VELMO DCT 38S163E DCT PLUGA DCT RIKNI N774 MARLN
Aircraft A21N/M-SDE2E3FGHIRWXY/LB1

Departure

Time 2026-05-04 07:22
Airport Auckland International Airport (NZAA)

Arrival

Time N/A
Airport Sydney Kingsford Smith International Airport (YSSY)
Time Latitude Longitude Altitude Speed Heading
2026-05-04 07:06 -37.00510 174.77786 26 ft 0 kts 341°
2026-05-04 07:13 -37.00512 174.77787 25 ft 1 kts 341°
2026-05-04 07:13 -37.00521 174.77791 10 ft 2 kts 341°
2026-05-04 07:13 -37.00535 174.77797 35 ft 2 kts 341°
2026-05-04 07:14 -37.00587 174.77831 28 ft 2 kts 303°
2026-05-04 07:14 -37.00595 174.77847 27 ft 2 kts 291°
2026-05-04 07:15 -37.00600 174.77865 26 ft 2 kts 278°
2026-05-04 07:15 -37.00602 174.77883 28 ft 2 kts 268°
2026-05-04 07:15 -37.00601 174.77902 28 ft 2 kts 259°
2026-05-04 07:15 -37.00599 174.77916 29 ft 0 kts 250°
2026-05-04 07:16 -37.00601 174.77910 30 ft 3 kts 250°
2026-05-04 07:17 -37.00613 174.77869 27 ft 8 kts 250°
2026-05-04 07:17 -37.00641 174.77768 26 ft 15 kts 251°
2026-05-04 07:17 -37.00679 174.77626 29 ft 19 kts 251°
2026-05-04 07:17 -37.00747 174.77542 28 ft 8 kts 175°
2026-05-04 07:18 -37.00811 174.77572 28 ft 14 kts 161°
2026-05-04 07:18 -37.00919 174.77619 27 ft 18 kts 161°
2026-05-04 07:18 -37.01048 174.77675 30 ft 21 kts 161°
2026-05-04 07:18 -37.01189 174.77736 26 ft 22 kts 160°
2026-05-04 07:19 -37.01263 174.77720 27 ft 10 kts 239°
2026-05-04 07:19 -37.01290 174.77622 28 ft 14 kts 251°
2026-05-04 07:19 -37.01331 174.77473 27 ft 21 kts 251°
2026-05-04 07:19 -37.01382 174.77286 26 ft 24 kts 251°
2026-05-04 07:20 -37.01434 174.77127 27 ft 13 kts 227°
2026-05-04 07:20 -37.01529 174.77093 26 ft 16 kts 190°
2026-05-04 07:20 -37.01616 174.77104 27 ft 10 kts 124°
2026-05-04 07:20 -37.01606 174.77176 26 ft 8 kts 71°
2026-05-04 07:22 -36.99681 174.84048 2605 ft 203 kts 71°
2026-05-04 07:22 -36.99225 174.85728 3391 ft 206 kts 71°
2026-05-04 07:23 -36.98755 174.87450 4125 ft 211 kts 71°
2026-05-04 07:23 -36.98344 174.89215 4928 ft 213 kts 84°
2026-05-04 07:23 -36.98575 174.91047 5674 ft 220 kts 115°
2026-05-04 07:23 -36.99588 174.92471 6527 ft 223 kts 149°
2026-05-04 07:24 -37.01069 174.93174 7264 ft 234 kts 166°
2026-05-04 07:24 -37.02714 174.93070 7946 ft 244 kts 198°
2026-05-04 07:24 -37.04184 174.91970 8659 ft 251 kts 224°
2026-05-04 07:24 -37.05268 174.90272 9403 ft 255 kts 240°
2026-05-04 07:25 -37.06091 174.88227 9874 ft 274 kts 249°
2026-05-04 07:26 -37.11424 174.68912 13679 ft 362 kts 252°
2026-05-04 07:27 -37.12251 174.65915 14439 ft 366 kts 252°
2026-05-04 07:27 -37.13072 174.62929 15097 ft 369 kts 252°
2026-05-04 07:27 -37.13913 174.59865 15764 ft 373 kts 252°
2026-05-04 07:27 -37.14761 174.56768 16416 ft 377 kts 252°
2026-05-04 07:28 -37.15333 174.54674 16864 ft 379 kts 252°
2026-05-04 07:28 -37.16471 174.50502 17706 ft 384 kts 252°
2026-05-04 07:28 -37.17337 174.47321 18345 ft 387 kts 252°
2026-05-04 07:28 -37.18211 174.44107 18952 ft 391 kts 252°
2026-05-04 07:29 -37.19092 174.40862 19515 ft 393 kts 252°
2026-05-04 07:29 -37.19675 174.38709 19896 ft 395 kts 252°
2026-05-04 07:29 -37.20599 174.35395 20439 ft 398 kts 247°
2026-05-04 07:29 -37.22000 174.32450 20962 ft 402 kts 230°
2026-05-04 07:30 -37.24011 174.29986 21505 ft 405 kts 221°
2026-05-04 07:30 -37.26135 174.27697 22022 ft 408 kts 220°
2026-05-04 07:30 -37.28327 174.25363 22554 ft 411 kts 220°
2026-05-04 07:30 -37.30491 174.22996 23067 ft 414 kts 224°
2026-05-04 07:31 -37.32369 174.20250 23572 ft 416 kts 236°
2026-05-04 07:31 -37.33822 174.17089 24059 ft 419 kts 246°
2026-05-04 07:33 -37.41192 173.92888 27137 ft 428 kts 250°
2026-05-04 07:33 -37.42256 173.89372 27513 ft 430 kts 250°
2026-05-04 07:33 -37.43322 173.85845 27886 ft 432 kts 250°
2026-05-04 07:33 -37.44391 173.82305 28230 ft 435 kts 250°
2026-05-04 07:34 -37.45466 173.78741 28569 ft 437 kts 250°
2026-05-04 07:34 -37.46545 173.75157 28907 ft 439 kts 250°
2026-05-04 07:34 -37.47628 173.71555 29218 ft 441 kts 250°
2026-05-04 07:34 -37.48715 173.67936 29525 ft 443 kts 250°
2026-05-04 07:35 -37.49806 173.64301 29820 ft 445 kts 250°
2026-05-04 07:35 -37.50901 173.60644 30103 ft 447 kts 250°
2026-05-04 07:35 -37.52002 173.56966 30387 ft 449 kts 250°
2026-05-04 07:35 -37.53103 173.53279 30659 ft 451 kts 250°
2026-05-04 07:36 -37.54199 173.49606 30899 ft 453 kts 250°
2026-05-04 07:36 -37.55308 173.45885 31139 ft 455 kts 250°
2026-05-04 07:38 -37.63159 173.19391 32889 ft 464 kts 250°
2026-05-04 07:38 -37.64284 173.15573 33151 ft 465 kts 250°
2026-05-04 07:38 -37.65408 173.11753 33409 ft 465 kts 250°
2026-05-04 07:38 -37.66534 173.07919 33673 ft 465 kts 250°
2026-05-04 07:39 -37.67645 173.04136 33932 ft 464 kts 250°
2026-05-04 07:39 -37.68763 173.00320 34202 ft 463 kts 250°
2026-05-04 07:39 -37.69879 172.96507 34476 ft 463 kts 250°
2026-05-04 07:39 -37.70995 172.92683 34561 ft 466 kts 250°
2026-05-04 07:40 -37.73258 172.84921 34556 ft 474 kts 250°
2026-05-04 07:40 -37.75543 172.77064 34548 ft 479 kts 250°
2026-05-04 07:41 -37.77843 172.69129 34546 ft 482 kts 250°
2026-05-04 07:41 -37.80139 172.61185 34557 ft 484 kts 250°
2026-05-04 07:42 -37.82451 172.53159 34555 ft 486 kts 250°
2026-05-04 07:42 -37.84763 172.45113 34557 ft 487 kts 250°
2026-05-04 07:43 -37.87080 172.37027 34550 ft 488 kts 249°
2026-05-04 07:43 -37.89391 172.28936 34552 ft 489 kts 249°
2026-05-04 07:44 -37.91691 172.20860 34551 ft 489 kts 249°
2026-05-04 07:44 -37.93997 172.12741 34553 ft 490 kts 249°
2026-05-04 07:45 -37.96299 172.04607 34551 ft 490 kts 249°
2026-05-04 07:45 -37.98596 171.96468 34554 ft 490 kts 249°
2026-05-04 07:46 -38.00888 171.88321 34554 ft 491 kts 249°
2026-05-04 07:46 -38.03177 171.80163 34556 ft 491 kts 249°
2026-05-04 07:47 -38.05443 171.72058 34549 ft 491 kts 249°
2026-05-04 07:49 -38.14521 171.39347 34550 ft 490 kts 249°
2026-05-04 07:49 -38.16771 171.31176 34549 ft 490 kts 249°
2026-05-04 07:50 -38.19015 171.23001 34551 ft 490 kts 249°
2026-05-04 07:50 -38.21237 171.14876 34547 ft 489 kts 249°
2026-05-04 07:51 -38.23469 171.06694 34544 ft 489 kts 249°
2026-05-04 07:51 -38.25678 170.98502 34547 ft 489 kts 252°
2026-05-04 07:52 -38.27017 170.90010 34548 ft 491 kts 263°
2026-05-04 07:52 -38.27146 170.81312 34546 ft 492 kts 269°
2026-05-04 07:54 -38.27044 170.46507 34543 ft 491 kts 269°
2026-05-04 07:55 -38.27004 170.37821 34538 ft 491 kts 269°
2026-05-04 07:55 -38.26956 170.29199 34538 ft 490 kts 269°
2026-05-04 07:56 -38.26901 170.20523 34537 ft 490 kts 269°
2026-05-04 07:56 -38.26840 170.11851 34537 ft 490 kts 269°
2026-05-04 07:57 -38.26772 170.03155 34538 ft 490 kts 269°
2026-05-04 07:57 -38.26698 169.94494 34533 ft 489 kts 269°
2026-05-04 07:58 -38.26618 169.85827 34532 ft 489 kts 269°
2026-05-04 07:58 -38.26532 169.77216 34530 ft 489 kts 269°
2026-05-04 07:59 -38.26439 169.68536 34532 ft 490 kts 269°
2026-05-04 07:59 -38.26340 169.59865 34534 ft 490 kts 269°
2026-05-04 08:00 -38.26234 169.51202 34529 ft 490 kts 269°
2026-05-04 08:02 -38.25747 169.16533 34525 ft 490 kts 269°
2026-05-04 08:02 -38.25610 169.07872 34523 ft 490 kts 269°
2026-05-04 08:03 -38.25467 168.99256 34519 ft 489 kts 269°
2026-05-04 08:03 -38.25317 168.90597 34516 ft 489 kts 269°
2026-05-04 08:04 -38.25160 168.81942 34517 ft 489 kts 269°
2026-05-04 08:04 -38.24997 168.73278 34517 ft 489 kts 269°
2026-05-04 08:05 -38.24828 168.64639 34518 ft 488 kts 269°
2026-05-04 08:05 -38.24655 168.56059 34504 ft 488 kts 269°
2026-05-04 08:06 -38.24473 168.47423 34513 ft 488 kts 269°
2026-05-04 08:06 -38.24286 168.38789 34505 ft 487 kts 269°
2026-05-04 08:08 -38.23477 168.04433 34504 ft 485 kts 270°
2026-05-04 08:11 -38.22451 167.65945 34499 ft 483 kts 270°
2026-05-04 08:11 -38.22082 167.53154 34496 ft 482 kts 270°
2026-05-04 08:12 -38.21872 167.46073 34489 ft 482 kts 270°
2026-05-04 08:12 -38.21613 167.37553 34493 ft 481 kts 270°
2026-05-04 08:13 -38.21350 167.29056 34484 ft 481 kts 270°
2026-05-04 08:13 -38.21034 167.19160 34485 ft 480 kts 270°
2026-05-04 08:14 -38.20804 167.12146 34483 ft 480 kts 270°
2026-05-04 08:16 -38.19644 166.78310 34480 ft 478 kts 271°
2026-05-04 08:16 -38.19340 166.69887 34478 ft 477 kts 271°
2026-05-04 08:17 -38.19031 166.61504 34477 ft 476 kts 271°
2026-05-04 08:17 -38.18715 166.53093 34473 ft 476 kts 271°
2026-05-04 08:19 -38.17396 166.19553 34463 ft 474 kts 271°
2026-05-04 08:20 -38.17051 166.11169 34462 ft 474 kts 271°
2026-05-04 08:20 -38.16701 166.02799 34465 ft 474 kts 271°
2026-05-04 08:21 -38.16347 165.94497 34462 ft 473 kts 271°
2026-05-04 08:21 -38.15987 165.86153 34459 ft 473 kts 272°
2026-05-04 08:22 -38.15620 165.77819 34457 ft 472 kts 272°
2026-05-04 08:24 -38.14101 165.44597 34447 ft 471 kts 272°
2026-05-04 08:24 -38.13707 165.36312 34443 ft 470 kts 272°
2026-05-04 08:25 -38.13308 165.28010 34441 ft 470 kts 273°
2026-05-04 08:25 -38.12902 165.19704 34440 ft 470 kts 273°
2026-05-04 08:27 -38.11227 164.86669 34429 ft 469 kts 274°
2026-05-04 08:28 -38.10792 164.78396 34432 ft 469 kts 274°
2026-05-04 08:28 -38.10353 164.70135 34427 ft 469 kts 274°
2026-05-04 08:29 -38.09907 164.61851 34426 ft 469 kts 274°
2026-05-04 08:31 -38.08070 164.28829 34416 ft 470 kts 275°
2026-05-04 08:33 -38.06134 163.95750 34404 ft 470 kts 275°
2026-05-04 08:35 -38.04102 163.62676 34396 ft 471 kts 275°
2026-05-04 08:35 -38.03579 163.54390 34393 ft 471 kts 275°
2026-05-04 08:37 -38.01709 163.25428 34385 ft 470 kts 275°
2026-05-04 08:38 -38.01166 163.17157 34384 ft 470 kts 275°
2026-05-04 08:38 -38.00622 163.08950 34377 ft 470 kts 275°
2026-05-04 08:40 -37.95280 162.80924 34369 ft 469 kts 287°
2026-05-04 08:40 -37.94312 162.76980 34368 ft 469 kts 287°
2026-05-04 08:41 -37.92369 162.69088 34364 ft 469 kts 287°
2026-05-04 08:41 -37.90418 162.61202 34367 ft 469 kts 287°
2026-05-04 08:42 -37.88463 162.53331 34360 ft 469 kts 287°
2026-05-04 08:42 -37.86499 162.45458 34357 ft 468 kts 287°
2026-05-04 08:43 -37.84530 162.37595 34353 ft 468 kts 287°
2026-05-04 08:43 -37.82556 162.29744 34349 ft 468 kts 287°
2026-05-04 08:44 -37.80591 162.21950 34348 ft 468 kts 287°
2026-05-04 08:46 -37.72644 161.90662 34339 ft 467 kts 288°
2026-05-04 08:46 -37.70645 161.82858 34334 ft 467 kts 288°
2026-05-04 08:47 -37.68639 161.75052 34333 ft 467 kts 288°
2026-05-04 08:47 -37.66622 161.67229 34328 ft 467 kts 288°
2026-05-04 08:48 -37.64617 161.59474 34329 ft 467 kts 288°
2026-05-04 08:48 -37.62593 161.51670 34327 ft 467 kts 288°
2026-05-04 08:49 -37.60566 161.43878 34322 ft 468 kts 289°
2026-05-04 08:50 -37.53414 161.16573 34313 ft 469 kts 289°
2026-05-04 08:51 -37.51396 161.08921 34307 ft 470 kts 289°
2026-05-04 08:51 -37.49318 161.01063 34305 ft 470 kts 289°
2026-05-04 08:52 -37.47251 160.93273 34304 ft 470 kts 290°
2026-05-04 08:52 -37.45185 160.85511 34303 ft 471 kts 290°
2026-05-04 08:54 -37.36794 160.54233 34287 ft 471 kts 290°
2026-05-04 08:55 -37.34698 160.46479 34289 ft 472 kts 290°
2026-05-04 08:55 -37.32580 160.38666 34290 ft 471 kts 290°
2026-05-04 09:01 -37.10429 159.58316 34255 ft 471 kts 290°
2026-05-04 09:01 -37.08261 159.50587 34259 ft 470 kts 290°
2026-05-04 09:02 -37.06094 159.42877 34254 ft 468 kts 290°
2026-05-04 09:02 -37.03926 159.35188 34255 ft 467 kts 290°
2026-05-04 09:03 -37.01776 159.27579 34251 ft 466 kts 290°
2026-05-04 09:03 -36.99609 159.19932 34251 ft 465 kts 290°
2026-05-04 09:04 -36.97443 159.12312 34243 ft 465 kts 290°
2026-05-04 09:04 -36.95273 159.04699 34243 ft 464 kts 290°
2026-05-04 09:05 -36.93105 158.97114 34241 ft 463 kts 290°
2026-05-04 09:05 -36.90931 158.89527 34237 ft 462 kts 290°
2026-05-04 09:06 -36.88757 158.81964 34236 ft 462 kts 290°
2026-05-04 09:08 -36.80062 158.51905 34219 ft 461 kts 289°
2026-05-04 09:08 -36.77887 158.44440 34218 ft 460 kts 289°
2026-05-04 09:09 -36.75695 158.36938 34219 ft 460 kts 290°
2026-05-04 09:09 -36.73498 158.29440 34219 ft 460 kts 290°
2026-05-04 09:10 -36.71297 158.21946 34215 ft 460 kts 290°
2026-05-04 09:10 -36.69092 158.14463 34207 ft 459 kts 290°
2026-05-04 09:11 -36.66896 158.07029 34207 ft 459 kts 290°
2026-05-04 09:11 -36.64683 157.99553 34202 ft 459 kts 290°
2026-05-04 09:12 -36.62465 157.92085 34204 ft 459 kts 290°
2026-05-04 09:14 -36.53561 157.62299 34200 ft 459 kts 290°
2026-05-04 09:14 -36.51337 157.54908 34196 ft 459 kts 290°
2026-05-04 09:15 -36.49093 157.47471 34188 ft 459 kts 290°
2026-05-04 09:15 -36.46846 157.40045 34189 ft 459 kts 290°
2026-05-04 09:17 -36.36716 157.06799 34177 ft 457 kts 290°
2026-05-04 09:18 -36.34456 156.99433 34169 ft 456 kts 290°
2026-05-04 09:18 -36.32190 156.92066 34170 ft 456 kts 290°
2026-05-04 09:19 -36.29922 156.84715 34168 ft 455 kts 290°
2026-05-04 09:19 -36.27670 156.77433 34162 ft 455 kts 290°
2026-05-04 09:20 -36.25401 156.70111 34160 ft 455 kts 290°
2026-05-04 09:20 -36.23129 156.62800 34161 ft 454 kts 290°
2026-05-04 09:21 -36.20855 156.55500 34159 ft 454 kts 290°
2026-05-04 09:21 -36.18581 156.48219 34153 ft 453 kts 290°
2026-05-04 09:22 -36.16316 156.40986 34147 ft 453 kts 290°
2026-05-04 09:22 -36.14039 156.33732 34151 ft 452 kts 290°
2026-05-04 09:23 -36.11758 156.26485 34145 ft 452 kts 291°
2026-05-04 09:23 -36.09474 156.19246 34141 ft 451 kts 291°
2026-05-04 09:25 -36.00322 155.90421 34131 ft 450 kts 291°
2026-05-04 09:26 -35.98026 155.83234 34129 ft 450 kts 291°
2026-05-04 09:26 -35.95740 155.76094 34129 ft 450 kts 291°
2026-05-04 09:27 -35.93437 155.68921 34128 ft 450 kts 291°
2026-05-04 09:27 -35.91130 155.61751 34124 ft 450 kts 291°
2026-05-04 09:28 -35.88816 155.54578 34124 ft 449 kts 291°
2026-05-04 09:28 -35.86504 155.47426 34114 ft 450 kts 291°
2026-05-04 09:29 -35.84175 155.40240 34112 ft 450 kts 291°
2026-05-04 09:29 -35.81849 155.33084 34118 ft 450 kts 291°
2026-05-04 09:30 -35.79519 155.25931 34110 ft 449 kts 291°
2026-05-04 09:30 -35.77200 155.18827 34108 ft 449 kts 291°
2026-05-04 09:31 -35.74863 155.11687 34107 ft 449 kts 291°
2026-05-04 09:31 -35.72524 155.04557 34104 ft 449 kts 292°
2026-05-04 09:32 -35.70580 154.98638 34102 ft 449 kts 292°